Regional Weather Roundup
Issued by NWS Jackson, KY

Home | Current Version | Previous Version | Text Only | Print | Product List | Glossary On
Versions: 1 2 3 4 5 6 7 8 9 10 11 12 13 14 15 16 17 18 19 20 21 22 23 24 25 26 27
000
ASUS43 KJKL 281010
RWRJKL

EAST KENTUCKY HOURLY WEATHER ROUNDUP
NATIONAL WEATHER SERVICE JACKSON KY
600 AM EDT WED SEP 28 2016

NOTE: "FAIR" INDICATES FEW OR NO CLOUDS BELOW 12,000 FEET WITH
NO SIGNIFICANT WEATHER AND/OR OBSTRUCTIONS TO VISIBILITY.

* THESE REPORTS ARE NOT UNDER NWS QUALITY CONTROL AND MAY NOT
  REPORT WEATHER SUCH AS PRECIPITATION AND FOG.

KYZ079-080-083-085-087-088-110-112-115-119-120-281100
...EASTERN KENTUCKY...

CITY           SKY/WX    TMP DP  RH WIND       PRES   REMARKS
JACKSON        CLEAR     50  46  86 CALM      29.94R
LONDON         CLEAR     46  43  89 CALM      29.95R
SOMERSET*      CLEAR     46  46 100 CALM      29.95S
MONTICELLO*    CLEAR     46  45  96 W8        29.96R
WILLIAMSBURG*  SUNNY     45  45 100 CALM      29.96R
MIDDLESBORO*   CLEAR     46  46 100 CALM      29.98S
HARLAN APT*    CLOUDY    46  46 100 CALM      29.98R VSB 1/2
PIKE CO APT*     N/A     52  48  87 S5        29.95R
BIG SANDY APT* SUNNY     52  47  82 CALM      29.94S
MOREHEAD APT*  SUNNY     50  46  87 S3        29.92S
ASHLAND*       CLEAR     50  46  87 CALM      29.90S
$$

KYZ035-036-041-042-044-050-067-078-099-281100
...CENTRAL KENTUCKY...

CITY           SKY/WX    TMP DP  RH WIND       PRES   REMARKS
MT STERLING*   CLEAR     54  45  71 SW6       29.92R
FLEMING/MASON* CLEAR     52  45  75 S7        29.90S
DANVILLE*      PTCLDY    52  46  82 S6        29.92S
LEXINGTON      CLEAR     55  45  68 S8        29.89S
FRANKFORT      CLEAR     56  45  66 S6        29.86F
LOUISVILLE     MOCLDY    63  46  54 S7        29.83F
LEBANON*         N/A     55  46  71 S10       29.90S
GLASGOW*       CLEAR     49  49 100 CALM      29.91S
BOWLING GREEN  CLEAR     56  47  71 S5        29.90F
$$

KYZ091>093-OHZ055-061-077-WVZ005-015-034-035-042-281100
...SOUTHERN OHIO/WEST VIRGINIA...

CITY           SKY/WX    TMP DP  RH WIND       PRES   REMARKS
COVINGTON      MOCLDY    57  48  72 S12       29.82F
COLUMBUS       MOCLDY    57  47  69 SE5       29.85F
DAYTON         LGT RAIN  57  51  80 VRB5      29.82F
WILMINGTON     PTCLDY    56  46  69 S10       29.83F
HUNTINGTON     CLEAR     48  45  89 CALM      29.92R
CHARLESTON     PTCLDY    46  45  96 CALM      29.93S
PINEVILLE*     CLEAR     45  42  90 MISG      30.02S
BECKLEY        CLEAR     46  41  82 CALM      29.98S
BLUEFIELD      PTCLDY    49  41  74 CALM      30.00R
LOGAN CO APT*    N/A     50  48  93 CALM      29.94S
$$

VAZ002-007-008-TNZ017-027-036-066-071-281100
...SOUTHWEST VIRGINIA/EAST TENNESSEE...

CITY           SKY/WX    TMP DP  RH WIND       PRES   REMARKS
WISE*          PTCLDY    52  36  54 CALM      29.99S
JONESVILLE*      N/A     46  46 100 CALM      29.99R
ABINGDON*      CLEAR     55  55  98 CALM      29.98R
BRISTOL        FOG       58  58 100 N3        29.96R VSB 1/16
MORRISTOWN*    PTSUNNY   55  52  88 CALM      29.94S
SEVIERVILLE*   CLOUDY    61  59  94 CALM      29.95R
KNOXVILLE      PTCLDY    57  53  86 CALM      29.94S
OAK RIDGE      CLEAR     52  48  86 CALM      29.97R
CROSSVILLE     CLEAR     45  43  93 CALM      29.98R
NASHVILLE      CLEAR     51  47  86 S5        29.94R
$$

...KEY TO REMARKS...
VSB - VISIBILITY IN MILES
WCI - WIND CHILL INDEX
HX  - HEAT INDEX

$$




USA.gov is the U.S. government's official web portal to all federal, state and local government web resources and services.